Вернуться в каталог

TEVEL2-5

АктивенЛюбительское радиоSSO
NORAD 63214·PAYLOAD·🇮🇱 Israel

Запущен Mar 15, 2025 с Vandenberg Space Force Base

Loading…

Ближайшие Пролёты (ближайшие 24 часа)

TLE

СвежийSource: AMSAT

Эпоха: Sep 13, 2026, 16:16 UTC

1 63214U 25052E   26256.67827196  .00016374  00000-0  45012-3 0  9993
2 63214  97.3761 153.2599 0003958 122.7443 237.4184 15.37274978 83691

Отслеживайте TEVEL2-5 в реальном времени с AllMySat

Download on the App Store